Погода в Елгаве

Погода в Елгаве : погода сейчас, прогноз погоды и архив. Всё, что Вы хотите узнать о погоде в Елгаве!

Поиск расширенной информации на нашем сайте:

Другие новости

Новости СМИ2

Главная страница сайта

Новости сайта

03.07.2017

Напоминаем, что на нашем специализированном сайте Метеоцентр.Азия вы можете получить высокодетализированные автоматические прогнозы погоды по пунктам России, СНГ и мира в авиационном формате (включающие направление и скорость ветра, видимость, явления погоды, количество и форму облачности, нижнюю и верхнюю границу облачности).


Погода в Елгаве - сегодня

Время (UTC), дата Ветер
(°,м/с) 
Видим.   Явления Облачность Т
(°С)
Тd
(°С)
f(%) Тe
(°С)
Pmin
(гПа)
dP
(гПа)
Po
(мм)
O2
(г/м3)
Тmin Tmax R s Состояние
почвы
18 08.02.18 тихо () -1  н/о    н/о 
-6.5 -7.2 95 -7  1022.3  0.2  766  317           
21 08.02.18 110 (В) 1-2  н/о    н/о 
-6.3 -7.2 93 -6  1022.3  766  317           
00 09.02.18 160 (Ю) 1-1  н/о    н/о 
-6.3 -7.4 92 -6  1022.4  0.1  766  317           
03 09.02.18 120 (ЮВ) 2-2  н/о    н/о 
-6.2 -7.1 93 -8  1022.6  0.1  766  317           
06 09.02.18 070 (В) 1-1  н/о    н/о 
-5.9 -6.7 94 -6  1022.5  -0.1  766  316           
09 09.02.18 030 (СВ) 2-3  н/о    н/о 
-5.4 -6.2 94 -7  1022.9  0.3  766  316           
12 09.02.18 340 (С) 2-3  н/о    н/о 
-5.5 -6.5 93 -7  1022.9  767  316           
15 09.02.18 030 (СВ) 2-3  н/о    н/о 
-6.2 -7.5 90 -8  1022.7  -0.2  766  317           
18 09.02.18 010 (С) 2-4  н/о    н/о 
-7.7 -8.7 93 -9  1023.2  0.4  767  319           
09 22.02.18 310 (СЗ) 1-1  н/о    н/о 
-15.5 -17.6 84 -16  1032.5  0.7  774  332           
21 23.04.18 190 (Ю) 4-6  н/о    н/о 
+11 +6.8 75 +10  1007.6  -1.6  755  291           
06 25.04.18 230 (ЮЗ) 6-9  н/о    н/о 
+8.1 +4.8 80 +6  1003.5  0.4  752  293           
18 29.04.18 270 (З) 4-6  н/о    н/о 
+17.4 +9.4 59 +18  1011.4  0.5  758  285           
21 06.05.18 120 (ЮВ) 2-2  н/о    н/о 
+15.7 +4.4 47 +16  1024.8  -0.5  768  292           
15 21.05.18 080 (В) 4-6  н/о    н/о 
+22.4 +5 32 +22  1025.5  -1.7  768  285           
15 06.06.18 030 (СВ) 4-5  н/о    н/о 
+14.2 +2.1 44 +14  1019.5  -0.7  764  292           
15 14.06.18 210 (ЮЗ) 1-3  н/о    н/о 
+23.7 +8.4 38 +24  1011.8  -0.6  758  280           
12 04.07.18 310 (СЗ) 3-5  н/о    н/о 
+17.2 +14 81 +25  1008.9  0.6  756  284           
00 24.07.18 310 (СЗ) 2-3  н/о    н/о 
+18.3 +17.2 93 +31  1012.3  -0.2  759  283           
15 05.09.18 310 (СЗ) 2-3  н/о    н/о 
+21.6 +15.8 70 +31  1017.6  -0.3  763  281           
21 06.09.18 050 (СВ) 2-2  н/о    н/о 
+15.8 +12.9 83 +22  1015.5  -0.1  761  287           
15 07.09.18 180 (Ю) 4-5  н/о    н/о 
+25.5 +9.6 37 +26  1015.2  761  279           
15 10.09.18 240 (ЮЗ) 2-2  н/о    н/о 
+23.3 +12.7 51 +28  1020.5  -0.8  765  282           
18 10.09.18 260 (З) 2-4  н/о    н/о 
+17.1 +13.4 79 +24  1020.5  -0.1  765  287           
00 14.09.18 210 (ЮЗ) 1-3  н/о    н/о 
+7.2 +6 92 +8  1018.7  0.1  763  299           
Время (UTC), дата Ветер
(°,м/с) 
Видим.   Явления Облачность Т
(°С)
Тd
(°С)
f(%) Тe
(°С)
Pmin
(гПа)
dP
(гПа)
Po
(мм)
O2
(г/м3)
Тmin Tmax R s Состояние
почвы

Для получения пояснительной информации подведите курсор к названию столбца.

ПОГОДА в Елгаве - архив

Всё, что Вы хотите узнать о погоде в Елгаве - удобно и подробно!

Выберите нужную дату (начиная с 1 января 2015* года) и нажмите кнопку "Найти".
Будут отображены архивные сводки погоды по пункту Елгава, начиная с указанной даты.


Отображать данные в формате CSV (для использования в таблицах Excel)


Внимание! Наш архив погоды предназначен исключительно для личного некоммерческого использования в познавательных целях. Если Вам необходимы официальные справки о состоянии погоды (для производственных, юридических, коммерческих и т.п. целей), обращайтесь в органы Росгидромета.

*Примечание: данная дата относится к архиву по метеостанциям СССР (Россия, СНГ, Балтия).
Архив по метеостанциям Зарубежной Европы и Азии (кроме Китая) хранится 10 дней, по другим регионам земного шара (Китай, Африка, Америка, Австралия, Океания) - 1 день.

Елгава - район местоположения метеостанции


Название, широта, долгота, высота метеостанции:
Елгава 56.6°ш. 23.7°д. 9 м над ур. моря [Латвия]

Дополнительная информация

В oтличие oт бoльшинства пoгoдных сайтoв мы публикуем пoдрoбную метеoинфoрмацию в детальнoм прoфессиoнальнoм фoрмате.

Характеристики температуры и влажнoсти вoздуха измеряются на высoте 2 м в тени вдали oт зданий и деревьев.
Скoрoсть ветра измеряется на высoте 10 м (на урoвне рoста челoвека скoрoсть ветра ниже в 1.5-2 раза). Если метеoстанция нахoдится в гoрoде или в лесу, тo скoрoсть ветра занижена на 2-4 м/с пo сравнению с oткрытым местoм. Скoрoсть ветра над акватoриями крупных рек и oзёр, а также на вершинах хoлмoв на 2-5 м/с выше, чем в oбычных услoвиях.
Атмoсфернoе давление в разных тoчках местнoсти мoжет значительнo oтличаться oт давления на метеoстанции, в зависимoсти oт услoвий рельефа (при пoдъёме на 10 м давление пoнижается примернo на 1 мм рт.ст.).